Location: Bothwell
(42.3833°S, 147.0000°E)
Time: 14:28:11
(UTC+10:00)

AO-85 - Visible Passes

Search period start: 16 April 2024 00:00
Search period end: 26 April 2024 00:00
Orbit: 516 x 753 km, 64.8° (Epoch: 04 January)

Date Brightness Start Highest point End Pass type
(mag) Time Alt. Az. Time Alt. Az. Time Alt. Az.
17 Apr ? 20:12:46 10° SSW 20:12:56 11° S 20:12:56 11° S visible
18 Apr ? 20:31:13 10° SSW 20:31:19 11° SSW 20:31:19 11° SSW visible
19 Apr ? 19:11:06 10° S 19:12:31 14° SSE 19:12:31 14° SSE visible
20 Apr ? 19:29:11 10° SSW 19:31:00 20° S 19:31:00 20° S visible
21 Apr ? 19:47:38 10° SSW 19:49:33 25° SSW 19:49:33 25° SSW visible
22 Apr ? 18:27:25 10° S 18:30:02 16° SE 18:30:57 15° SE visible
22 Apr ? 20:06:25 10° SW 20:08:11 24° SW 20:08:11 24° SW visible
23 Apr ? 18:45:31 10° SSW 18:49:09 29° SE 18:49:42 28° ESE visible
23 Apr ? 20:25:38 10° WSW 20:26:57 17° WSW 20:26:57 17° WSW visible
24 Apr ? 19:04:01 10° SSW 19:08:04 62° SE 19:08:35 55° E visible
25 Apr ? 19:22:48 10° SW 19:26:47 56° WNW 19:27:41 43° NNW visible
